Temp
1 1 3 7 6 6 7 7 8 8 9 9 10 10 11 12 12 12 12 13 13 13 13 12 12 12 12 11 11 11 11 11 11 11 11 11 11 10 9 9 8 8 7 7
0 1 5 4 4 4 5 7 8 9 9 10 10 11 11 12 12 12 12 13 13 13 13 12 12 12 12 11 11 11 11 11 11 12 12 11 10 10 10 9 8 7 6 6
0 2 2 2 3 4 5 5 7 7 9 10 10 10 11 12 12 12 12 12 12 12 12 12 12 12 11 11 11 11 11 11 11 12 12 11 11 10 10 8 7 6 6 6
0 1 2 3 3 4 5 6 6 7 8 8 9 9 10 11 11 12 12 12 12 12 12 12 12 12 11 11 11 11 11 11 12 12 12 11 11 9 8 7 8 7 6 6
0 1 2 2 3 4 5 6 6 8 8 9 9 10 10 10 11 11 12 12 12 13 13 13 12 12 11 11 11 11 11 11 12 12 11 10 9 9 7 8 7 6 6 5
1 1 1 2 3 4 5 6 6 7 8 7 9 10 10 10 11 11 12 12 12 13 13 13 12 12 11 11 11 11 11 12 12 11 10 9 8 8 7 7 6 6 5 4
1 1 2 2 2 4 5 5 5 5 6 6 9 10 10 11 11 12 12 12 12 13 13 13 12 12 11 11 11 11 12 11 11 10 9 9 8 7 7 6 6 5 4 4
1 0 1 2 2 3 4 5 5 3 5 7 9 10 11 12 12 12 12 12 12 12 12 12 12 12 11 12 11 12 11 11 10 9 9 8 6 7 6 6 5 5 4 4
-1 -0 1 1 2 3 4 4 6 6 8 8 10 10 11 12 13 13 13 12 13 12 12 12 12 12 12 12 12 11 11 10 9 9 8 7 7 7 6 5 5 4 5 5
-2 -2 -1 2 1 2 3 5 6 6 5 5 10 11 11 13 14 13 13 13 12 12 12 12 11 12 12 12 11 11 10 9 9 8 7 7 7 6 6 5 4 4 5 4
-3 -2 -1 -1 -1 2 4 4 5 6 7 6 6 9 12 13 14 14 13 13 12 12 12 12 12 12 12 11 11 10 9 9 8 8 7 7 7 6 5 5 4 5 5 4
-3 -3 -3 -2 1 2 1 2 5 5 7 8 9 10 13 13 14 14 13 13 12 12 12 12 12 12 12 11 10 9 9 8 8 8 7 6 6 5 4 5 5 5 4 4
-3 -3 -3 -2 2 2 2 3 5 6 7 8 8 10 12 12 13 13 13 13 12 12 12 12 12 12 11 10 10 9 8 8 8 7 7 6 5 4 4 4 4 5 4 4
-4 -5 -4 -3 -1 -3 -2 1 3 5 7 8 9 10 11 12 13 12 12 12 12 12 12 12 12 11 10 10 9 8 8 8 7 6 3 5 4 4 4 4 4 5 4 4
-5 -5 -4 -4 -3 -3 -2 -2 1 2 5 8 9 10 11 12 12 12 12 12 12 12 12 12 11 10 10 9 9 8 8 7 6 3 3 4 4 5 4 4 4 4 4 4
-5 -4 -4 -3 -1 -2 -2 -1 0 2 5 6 9 10 11 12 12 11 11 12 11 12 12 11 10 10 9 9 9 8 8 6 6 2 4 4 5 5 5 5 4 4 4 4
-4 -4 -4 -3 -2 -2 -1 2 3 5 6 7 8 10 9 8 10 10 10 10 10 10 10 11 10 10 9 8 8 8 7 6 6 4 3 5 5 5 5 5 4 4 4 4
-3 -4 -4 -3 -3 -2 2 2 5 5 6 7 9 10 10 10 10 9 9 9 9 9 9 10 10 9 9 8 8 7 7 6 6 3 4 5 5 5 5 4 4 4 4 4
-3 -3 -4 -3 -3 -1 1 0 1 3 5 6 8 8 3 7 9 10 9 9 9 9 9 10 9 9 9 8 8 7 7 6 5 4 5 5 5 5 5 4 4 4 3 3
-3 -3 -4 -3 -3 -1 -1 1 2 2 3 2 6 8 7 7 10 9 9 9 9 9 9 9 9 10 9 8 8 8 7 6 5 4 4 5 5 5 5 4 4 4 3 3
-3 -3 -3 -3 -3 -3 -1 1 3 2 2 2 4 6 7 8 9 9 9 9 9 9 9 9 9 10 9 9 8 8 7 6 5 3 4 5 5 5 5 4 4 4 3 3
-4 -4 -3 -3 -3 -2 -2 -0 1 0 0 1 3 4 7 7 8 9 9 10 9 9 9 9 9 10 9 9 9 8 8 7 5 5 5 5 5 4 5 5 4 4 4 3
-4 -4 -4 -3 -3 -2 -2 -2 -1 -1 -0 1 2 3 4 6 8 8 9 9 9 9 8 8 9 10 10 9 9 9 8 7 4 5 6 5 5 5 5 5 5 5 4 4
-4 -4 -3 -3 -3 -2 -2 -2 -2 -1 0 1 1 2 3 5 7 8 9 9 9 9 9 9 9 10 10 9 9 9 8 7 6 6 6 5 6 6 5 5 5 5 4 4
-5 -4 -4 -3 -3 -3 -2 -2 -2 -1 -0 0 0 1 2 4 5 8 9 8 8 8 8 9 10 10 10 9 9 9 9 8 8 8 7 6 6 6 6 5 5 6 5 3
-4 -4 -4 -4 -4 -4 -3 -2 -2 -1 -1 -0 -0 0 1 2 4 7 8 8 7 7 8 8 9 9 10 9 9 9 9 9 9 9 8 7 7 6 7 6 7 7 6 6
Height
3051 3056 3047 3035 3054 3063 3069 3070 3069 3074 3086 3092 3086 3086 3086 3086 3089 3090 3089 3089 3087 3087 3088 3088 3090 3089 3090 3089 3088 3090 3088 3090 3090 3091 3092 3091 3090 3089 3088 3087 3087 3087 3090 3089
3047 3036 3031 3051 3057 3063 3066 3064 3062 3072 3081 3085 3079 3079 3080 3077 3078 3080 3080 3079 3080 3080 3079 3080 3081 3083 3082 3080 3079 3081 3082 3083 3083 3084 3084 3085 3084 3082 3083 3082 3083 3084 3083 3083
3037 3027 3040 3046 3053 3057 3055 3057 3061 3066 3077 3074 3073 3069 3068 3067 3068 3071 3072 3072 3072 3070 3072 3073 3073 3073 3071 3070 3071 3075 3076 3077 3077 3078 3078 3078 3078 3077 3076 3077 3079 3080 3080 3079
3028 3029 3032 3040 3044 3050 3046 3057 3061 3067 3072 3063 3073 3063 3057 3059 3059 3062 3063 3064 3063 3063 3064 3062 3062 3063 3064 3065 3066 3068 3070 3071 3071 3071 3072 3072 3072 3073 3073 3074 3075 3075 3075 3073
3014 3022 3029 3032 3035 3045 3036 3053 3057 3062 3064 3064 3062 3063 3034 3053 3052 3054 3055 3056 3055 3055 3054 3054 3054 3056 3057 3061 3062 3064 3065 3065 3066 3067 3067 3067 3067 3067 3068 3070 3070 3071 3070 3068
3017 3022 3025 3023 3030 3037 3043 3048 3053 3056 3058 3057 3045 3055 3017 3042 3045 3046 3047 3048 3047 3047 3046 3046 3046 3050 3052 3056 3058 3060 3061 3062 3063 3063 3063 3063 3063 3065 3066 3067 3066 3066 3065 3064
3014 3016 3019 3021 3024 3027 3034 3042 3046 3049 3048 3031 3042 3043 3027 3033 3037 3037 3041 3041 3042 3041 3040 3040 3042 3045 3048 3051 3054 3057 3057 3058 3059 3060 3059 3060 3061 3064 3063 3063 3063 3063 3062 3061
3009 3011 3013 3016 3018 3023 3024 3032 3036 3038 3034 3027 3040 3027 3020 3023 3029 3032 3035 3037 3036 3035 3036 3038 3040 3043 3045 3048 3051 3053 3055 3055 3056 3057 3058 3059 3060 3059 3060 3060 3060 3059 3059 3058
3007 3006 3007 3008 3011 3019 3017 3019 3022 3031 3030 3032 3028 3024 3024 3021 3023 3026 3029 3032 3031 3032 3033 3036 3038 3041 3043 3047 3048 3050 3051 3053 3054 3055 3056 3058 3058 3058 3058 3058 3057 3056 3056 3056
3008 3003 3003 3003 3004 3002 3009 3015 3024 3024 3031 3032 3019 3021 3016 3014 3016 3019 3024 3026 3027 3030 3032 3033 3036 3039 3042 3044 3047 3048 3049 3051 3052 3053 3054 3054 3055 3055 3054 3054 3054 3054 3054 3054
3006 3005 2997 3000 3000 3003 3007 3008 3014 3019 3023 3023 3024 3017 3011 3007 3012 3014 3020 3021 3024 3028 3030 3032 3035 3038 3040 3043 3045 3046 3048 3049 3050 3051 3051 3051 3051 3052 3052 3052 3052 3052 3053 3054
3002 2999 2993 2995 2993 2998 2998 2999 3009 3014 3013 3016 3018 3008 3008 3007 3008 3010 3015 3019 3022 3026 3029 3030 3034 3037 3040 3041 3043 3045 3046 3047 3048 3049 3049 3048 3049 3050 3051 3051 3051 3051 3052 3053
2999 2997 2995 2988 2988 2992 2993 2995 3001 3007 3013 3010 3014 3005 3008 3009 3009 3010 3012 3016 3020 3024 3026 3028 3032 3035 3038 3039 3041 3043 3045 3046 3047 3046 3046 3047 3048 3049 3050 3050 3049 3051 3052 3053
2996 2994 2995 2993 2984 2991 2987 2986 2990 2997 3001 3002 3003 3000 3007 3008 3008 3007 3011 3014 3019 3022 3025 3027 3031 3034 3036 3038 3040 3042 3043 3044 3044 3044 3046 3046 3048 3048 3049 3048 3049 3051 3052 3053
2993 2991 2990 2986 2983 2985 2983 2983 2984 2986 2991 2993 2998 3001 3005 3005 3005 3007 3010 3014 3016 3020 3024 3027 3030 3033 3035 3037 3039 3040 3042 3043 3043 3045 3047 3047 3047 3047 3048 3048 3049 3051 3052 3053
2990 2987 2985 2978 2978 2982 2979 2978 2979 2979 2981 2986 2993 2998 3004 3006 3004 3007 3010 3012 3016 3019 3023 3026 3030 3032 3034 3036 3038 3040 3041 3042 3043 3046 3047 3047 3047 3047 3047 3048 3049 3051 3052 3053
2990 2985 2984 2978 2975 2978 2981 2974 2975 2978 2980 2980 2988 2991 3000 3002 3005 3005 3010 3013 3016 3019 3023 3026 3029 3031 3034 3036 3037 3039 3040 3041 3044 3047 3047 3047 3048 3048 3048 3048 3050 3052 3053 3054
2982 2984 2982 2976 2973 2974 2969 2975 2977 2981 2986 2982 2984 2985 2998 3000 3001 3003 3008 3014 3018 3020 3024 3026 3028 3031 3034 3036 3038 3038 3040 3042 3044 3046 3047 3049 3050 3049 3050 3050 3052 3053 3054 3055
2977 2980 2979 2976 2975 2967 2964 2968 2973 2978 2984 2977 2974 2979 2989 2996 2998 3002 3007 3012 3016 3020 3024 3026 3028 3031 3035 3037 3038 3038 3040 3043 3043 3046 3048 3049 3051 3051 3051 3052 3053 3053 3055 3055
2975 2977 2976 2973 2971 2962 2958 2964 2968 2975 2980 2984 2982 2984 2991 2989 2992 2999 3006 3011 3015 3018 3021 3026 3029 3032 3035 3036 3038 3039 3040 3043 3044 3047 3049 3051 3052 3052 3052 3052 3053 3054 3055 3055
2969 2975 2973 2971 2971 2968 2964 2960 2963 2975 2982 2978 2982 2988 2995 2993 2996 3002 3007 3011 3016 3020 3023 3025 3029 3032 3035 3036 3038 3039 3040 3043 3045 3048 3049 3051 3053 3052 3052 3053 3054 3054 3055 3055
2972 2970 2969 2971 2971 2971 2967 2966 2968 2977 2979 2982 2983 2988 2992 2994 2997 3001 3007 3010 3016 3020 3022 3025 3028 3032 3035 3037 3038 3039 3041 3043 3046 3048 3050 3051 3053 3054 3054 3054 3055 3056 3057 3057
2975 2973 2970 2968 2970 2975 2970 2966 2974 2978 2977 2978 2988 2990 2990 2992 2996 3000 3004 3008 3014 3019 3022 3025 3028 3031 3035 3037 3038 3040 3041 3043 3046 3048 3050 3052 3054 3054 3055 3056 3057 3058 3058 3058
2977 2974 2972 2975 2976 2974 2973 2975 2970 2968 2972 2980 2984 2987 2988 2991 2995 2998 3002 3007 3010 3016 3021 3023 3027 3031 3035 3037 3038 3040 3041 3044 3046 3048 3051 3052 3054 3056 3057 3057 3058 3059 3059 3060
2983 2978 2977 2978 2979 2979 2978 2975 2969 2967 2974 2981 2981 2987 2987 2989 2992 2996 3001 3006 3010 3016 3022 3025 3026 3030 3034 3036 3038 3040 3041 3044 3046 3048 3051 3053 3055 3056 3057 3058 3059 3060 3060 3060
2985 2983 2981 2980 2981 2985 2978 2973 2980 2978 2984 2987 2987 2984 2984 2987 2989 2992 2999 3005 3010 3012 3018 3022 3023 3028 3032 3036 3038 3039 3041 3043 3045 3048 3050 3053 3054 3057 3058 3058 3060 3061 3061 3062
Wind_Speed
28 29 48 67 57 48 34 32 41 45 42 39 49 48 47 46 39 40 41 43 41 41 40 38 35 35 36 30 33 32 35 32 33 29 29 33 36 38 39 34 35 37 26 24
18 44 58 45 47 42 39 39 43 35 32 30 42 42 43 44 42 40 37 39 37 34 29 33 33 34 40 44 36 33 29 31 32 29 30 32 32 33 30 28 29 21 21 24
28 41 34 40 34 32 42 48 47 39 25 34 37 40 42 44 45 41 41 38 40 43 42 43 45 38 29 30 39 38 28 31 33 32 30 30 31 31 28 24 15 14 21 22
30 32 34 31 39 36 44 35 39 33 27 37 31 28 44 45 44 39 38 34 35 35 35 36 31 30 25 26 21 25 28 29 30 23 25 27 28 23 19 15 15 17 20 21
42 19 24 31 37 33 46 32 33 27 38 39 39 28 49 30 33 34 34 30 30 32 34 35 31 27 29 19 19 20 23 22 19 21 20 19 18 18 16 13 16 18 19 18
35 32 27 30 27 32 31 31 32 34 36 19 40 34 56 40 39 35 33 30 29 31 24 23 26 25 23 21 22 22 20 20 20 15 13 13 16 14 12 14 16 17 16 16
24 25 25 31 31 27 31 33 12 15 15 18 33 27 40 37 35 34 29 23 29 28 22 18 20 19 21 21 19 18 19 16 14 10 12 13 11 9 13 15 16 14 12 15
22 17 25 18 30 29 28 35 19 13 12 19 30 14 31 36 33 35 32 21 23 17 13 16 19 14 15 14 17 16 11 11 7 10 10 7 8 14 15 14 13 11 12 10
8 15 16 19 17 29 35 36 45 35 23 16 18 35 38 32 28 21 19 22 24 18 11 11 16 15 14 15 14 9 8 6 7 8 7 9 12 13 12 11 9 10 8 4
7 18 22 26 22 27 37 35 22 34 13 13 12 26 31 30 19 20 19 20 20 19 16 13 18 17 14 13 8 7 7 7 6 9 10 11 13 11 10 8 8 8 4 2
8 13 29 25 15 17 25 40 34 26 27 11 6 19 29 34 22 12 26 24 20 17 13 11 13 14 14 8 5 5 7 7 7 9 10 11 9 5 6 6 5 5 3 4
14 13 23 21 29 26 26 29 36 24 30 30 20 21 6 8 11 17 23 24 20 18 12 13 15 14 10 6 5 6 9 7 7 8 9 7 4 4 5 3 2 5 4 4
11 6 11 13 18 23 22 26 34 28 26 38 16 28 24 10 12 13 23 27 24 19 14 12 15 12 8 5 5 7 7 5 7 7 3 2 3 3 2 2 2 6 6 5
10 12 14 15 14 16 20 15 20 26 31 26 33 40 35 24 19 16 17 29 21 15 12 11 12 10 8 5 5 7 5 6 5 5 1 2 2 2 3 2 5 9 8 6
7 15 14 16 22 21 28 25 19 19 21 30 37 22 24 19 20 20 22 19 17 16 17 13 10 8 5 5 5 7 6 3 3 6 4 1 4 3 3 4 10 10 9 6
11 11 19 26 12 13 25 30 24 23 29 28 39 35 29 21 19 20 19 18 20 22 17 12 9 7 6 2 5 6 4 4 5 7 5 3 1 2 5 10 10 10 9 7
20 23 16 9 8 6 14 28 24 28 30 31 37 42 20 20 19 25 22 18 20 20 15 11 9 6 5 2 4 5 4 3 6 10 4 2 5 6 7 9 8 8 8 7
19 17 17 10 5 5 13 6 27 22 15 32 35 29 31 34 26 29 25 23 17 9 12 10 7 5 4 3 5 5 4 4 7 9 5 5 6 6 8 10 10 9 8 8
13 17 11 5 6 18 10 4 3 6 8 19 35 35 21 36 39 35 34 33 29 19 7 4 4 3 3 4 5 5 5 7 8 11 5 5 4 5 8 9 8 9 9 6
20 17 15 7 6 6 14 10 10 13 16 14 25 32 28 17 38 34 32 32 30 25 20 13 5 3 5 6 6 6 6 10 10 11 2 6 3 4 6 6 6 6 7 7
4 10 14 7 4 7 26 9 16 12 8 16 23 30 26 16 23 25 25 25 31 26 20 16 7 2 3 6 7 7 7 10 12 7 4 5 3 5 6 5 5 5 7 6
8 7 3 4 2 3 19 24 21 15 20 17 19 20 21 20 18 17 18 23 25 25 21 15 10 4 5 5 8 7 8 11 14 7 4 4 5 5 6 6 8 10 10 9
8 9 6 4 8 11 12 26 20 18 23 23 23 23 17 15 15 13 16 18 30 26 25 16 10 6 6 7 8 7 9 11 15 10 9 5 5 6 7 7 8 9 9 10
13 10 9 8 14 13 18 19 20 17 31 26 21 20 17 17 15 16 15 19 31 30 25 19 13 8 8 7 8 9 9 10 13 10 8 5 5 8 8 7 6 6 7 9
18 16 11 16 10 12 12 13 25 23 17 24 23 17 17 18 18 17 18 19 23 24 24 20 17 11 7 9 9 11 11 11 11 9 10 8 7 8 7 7 6 6 5 10
18 14 13 11 14 12 14 10 5 12 13 15 16 15 14 13 21 22 23 23 24 27 29 23 21 16 12 8 11 10 12 11 10 8 9 11 7 9 9 6 5 4 8 9
Wind_Direction
216 208 216 225 222 226 231 236 247 252 247 249 253 258 261 266 266 265 270 269 277 273 280 268 267 260 267 273 275 275 273 276 284 273 268 270 273 274 271 273 272 271 280 286
221 223 232 231 233 233 236 241 246 255 249 251 259 261 267 267 268 267 276 271 270 277 271 263 260 266 270 269 268 280 271 273 281 271 270 272 268 267 271 269 260 271 282 285
234 236 240 235 235 233 240 237 245 253 257 250 264 274 272 260 261 264 267 267 266 269 271 277 277 280 274 271 263 266 266 273 274 271 264 263 263 265 264 263 267 268 275 290
248 243 243 237 232 229 238 237 245 253 257 256 261 273 271 261 265 270 271 274 264 272 270 277 278 269 267 268 262 251 266 272 268 259 259 266 268 267 260 251 272 288 292 298
239 240 242 246 239 235 242 245 244 250 248 258 259 259 264 266 260 262 264 264 266 271 279 277 270 262 259 260 262 262 272 272 257 258 262 262 260 255 254 281 285 287 298 297
251 259 255 250 250 243 240 244 246 251 259 270 251 239 263 255 262 269 271 271 271 279 270 276 250 247 251 246 259 262 270 261 260 257 255 247 243 249 272 280 291 297 292 293
256 259 257 248 256 237 235 241 247 236 236 239 242 243 245 265 263 265 271 268 287 273 275 267 241 243 240 238 249 264 263 253 254 240 230 232 249 265 277 280 284 287 285 292
253 272 245 247 247 250 244 232 219 217 214 249 252 248 251 261 266 261 264 258 262 261 258 243 228 242 228 234 249 250 233 251 248 227 225 229 252 266 272 283 279 278 283 272
314 266 263 248 246 235 241 245 230 241 258 249 250 245 261 271 262 253 251 247 246 252 236 245 227 232 231 251 224 223 250 248 234 232 247 250 259 264 261 254 260 269 268 258
295 296 285 252 265 242 230 227 238 231 233 256 235 256 263 261 240 225 229 206 218 225 245 246 224 234 219 199 211 244 242 230 234 253 259 258 260 262 257 266 266 260 254 208
294 280 278 289 278 259 230 240 241 243 229 235 246 265 269 263 219 225 209 217 215 227 233 209 201 195 189 201 230 239 240 252 256 253 257 262 261 247 245 248 252 236 197 160
276 281 281 271 264 250 256 255 237 237 221 238 251 257 290 93 184 183 193 196 211 217 216 211 205 194 197 211 236 244 243 247 241 253 260 263 242 178 193 213 245 160 154 156
305 281 307 303 265 252 252 245 230 234 247 230 241 241 226 246 185 168 187 191 202 210 229 198 192 196 195 216 235 245 236 227 243 264 235 216 167 157 186 223 154 156 144 166
299 284 253 267 264 314 296 254 219 233 234 226 236 247 252 257 203 168 175 184 191 215 206 175 178 195 193 214 223 237 218 218 253 187 340 126 194 205 247 214 158 157 151 169
292 291 278 285 278 282 281 280 251 248 235 228 231 241 233 189 180 174 180 188 206 202 164 160 181 186 199 198 229 204 199 204 221 147 259 247 219 226 240 189 158 154 162 171
287 296 315 305 272 254 274 270 266 246 222 232 226 234 217 198 190 169 182 191 188 166 162 168 176 168 163 211 184 183 181 165 191 165 217 302 178 157 164 151 149 160 160 174
271 284 305 282 175 180 270 243 234 230 222 224 233 229 205 168 166 160 170 181 177 172 166 169 175 169 169 212 172 181 160 176 182 182 192 147 111 115 131 134 142 150 157 169
243 266 284 286 208 147 247 293 219 232 240 270 247 208 200 185 177 166 158 162 168 167 170 169 162 147 177 228 194 178 178 189 176 170 175 110 131 121 123 126 128 130 132 135
220 237 258 251 288 298 271 34 77 143 120 88 141 167 141 156 171 168 161 167 169 174 183 189 183 151 214 236 216 185 192 174 160 181 158 126 143 148 125 137 141 136 136 124
234 228 238 316 191 244 14 50 99 131 115 112 151 169 148 140 161 155 170 169 173 175 177 209 211 170 223 228 205 182 180 163 150 188 166 173 177 153 117 124 141 151 161 154
147 197 228 248 297 340 320 12 114 120 113 122 137 156 161 169 158 156 171 177 169 175 187 194 214 174 233 211 198 178 168 159 146 184 203 159 162 104 102 109 104 123 133 152
22 333 168 135 36 297 323 71 88 92 116 102 132 125 152 151 154 156 162 179 179 178 187 193 217 214 208 212 197 171 163 164 153 181 172 135 136 136 114 103 118 128 128 106
27 360 3 15 76 51 22 71 97 70 78 99 113 118 128 154 154 163 163 176 175 181 183 197 217 197 190 209 202 177 166 177 164 186 181 144 133 149 120 117 142 140 129 110
23 13 52 112 74 77 36 58 71 67 98 107 105 100 120 140 163 199 188 178 179 182 182 194 207 199 201 205 208 188 173 182 178 186 160 179 130 161 143 131 149 158 143 127
21 28 48 69 70 73 105 50 54 56 88 94 92 94 117 142 161 201 204 178 177 183 186 199 207 210 206 204 216 198 183 182 197 193 175 180 146 155 151 141 157 152 164 135
15 15 29 26 47 23 49 62 12 60 74 94 75 110 121 150 165 179 184 177 169 177 184 192 214 216 228 214 215 207 196 188 192 194 188 181 174 167 155 153 150 145 112 98